Location: Perryvale
(54.4667°N, 113.3833°W)
Time: 21:09:03
(UTC+00:00)

Transit 2A - Pass Details

Date: 20 May 2024
Orbit: 592 x 959 km, 66.7° (Epoch: 19 June)

Event Time Altitude Azimuth Distance (km) Brightness Sun altitude
Exits shadow 06:00:58 17° 136° (SE) 1,677 7.2 -13.0°
Maximum altitude 06:02:37 20° 109° (ESE) 1,564 7.3 -13.1°
Drops below altitude 10° 06:06:17 10° 62° (ENE) 2,244 8.5 -13.3°
Sets 06:09:18 0° 47° (NE) 3,248 9.6 -13.5°
